This is the latest recevied weather packets stored in our database for station/object N5GMJ. If no packets are shown the sender has not sent any weather packets the latest 1 day(s).
| Time | Temp. | Humidity | Pressure | Rain* | Wind** | Luminosity | Snow |
|---|---|---|---|---|---|---|---|
| 1778028912 | 20° C | 72% | 1007.5 hPa | 0 mm | 2.24 m/s, 266° | - | - |
| 1778028608 | 20° C | 72% | 1007.2 hPa | 0 mm | 2.68 m/s, 305° | - | - |
| 1778028306 | 20.56° C | 71% | 1007 hPa | 0 mm | 3.13 m/s, 321° | - | - |
| 1778028002 | 21.11° C | 71% | 1007.3 hPa | 0 mm | 2.68 m/s, 301° | - | - |
| 1778027698 | 21.11° C | 71% | 1007.6 hPa | 0 mm | 2.24 m/s, 294° | - | - |
| 1778027394 | 21.11° C | 70% | 1007.2 hPa | 0 mm | 2.24 m/s, 312° | - | - |
| 1778027090 | 21.67° C | 70% | 1007.2 hPa | 0 mm | 1.79 m/s, 51° | - | - |
| 1778026786 | 21.67° C | 70% | 1006.5 hPa | 0 mm | 0.89 m/s, 324° | - | - |
| 1778026483 | 21.67° C | 70% | 1006.7 hPa | 0 mm | 2.68 m/s, 309° | - | - |
| 1778026180 | 21.67° C | 71% | 1006.8 hPa | 0 mm | 1.34 m/s, 333° | - | - |
| 1778025878 | 21.67° C | 69% | 1007.1 hPa | 0 mm | 1.34 m/s, 307° | - | - |
| 1778025574 | 22.22° C | 69% | 1006.8 hPa | 0 mm | 3.58 m/s, 313° | - | - |
| 1778025273 | 22.22° C | 68% | 1006.8 hPa | 0 mm | 3.13 m/s, 347° | - | - |
| 1778024969 | 22.22° C | 69% | 1006.8 hPa | 0 mm | 1.79 m/s, 26° | - | - |
| 1778024667 | 22.78° C | 68% | 1007 hPa | 0 mm | 1.79 m/s, 300° | - | - |
| 1778024363 | 22.78° C | 67% | 1007.1 hPa | 0 mm | 4.02 m/s, 317° | - | - |
| 1778024061 | 22.78° C | 66% | 1007 hPa | 0 mm | 2.24 m/s, 338° | - | - |
| 1778023758 | 23.33° C | 66% | 1007 hPa | 0 mm | 1.34 m/s, 329° | - | - |
| 1778023456 | 23.33° C | 65% | 1006.5 hPa | 0 mm | 2.68 m/s, 327° | - | - |
| 1778023152 | 23.33° C | 65% | 1006.7 hPa | 0 mm | 2.24 m/s, 335° | - | - |
| 1778022850 | 23.33° C | 65% | 1006.6 hPa | 0 mm | 1.79 m/s, 327° | - | - |
| 1778022548 | 23.89° C | 64% | 1006.6 hPa | 0 mm | 2.68 m/s, 289° | - | - |
| 1778022246 | 23.89° C | 64% | 1006.7 hPa | 0 mm | 1.34 m/s, 333° | - | - |
| 1778021942 | 23.89° C | 64% | 1006.5 hPa | 0 mm | 2.24 m/s, 339° | - | - |
| 1778021639 | 24.44° C | 63% | 1006.5 hPa | 0 mm | 1.79 m/s, 1° | - | - |
* Rain latest hour (hover to see other rain measurements)
** Current wind speed in m/s (hover to see current wind gust speed)